EW2244 Weather Reports


Display with metric or nautical units.
time (UTC)temp
F
wind
direction
speed
MPH
gust
MPH
rain 1hr
in
rain 24hr
in
rain mn
in
humidity
%
barometer
mb
20260904213121 74 238 0.0 2.0 0.00 0.00 0.00 70 1018.7
20260904212142 74 238 0.0 3.0 0.00 0.00 0.00 69 1018.8
20260904211123 74 238 1.0 2.0 0.00 0.00 0.00 69 1018.9
20260904210126 74 238 0.0 3.0 0.00 0.00 0.00 70 1019.0
20260904205127 75 238 1.0 2.0 0.00 0.00 0.00 68 1019.0
20260904204134 76 238 0.0 2.0 0.00 0.00 0.00 66 1019.1
20260904203132 77 238 0.0 3.0 0.00 0.00 0.00 64 1019.1
20260904202133 77 238 1.0 3.0 0.00 0.00 0.00 63 1019.0
20260904201137 77 235 1.0 3.0 0.00 0.00 0.00 64 1019.0
20260904200123 77 236 0.0 3.0 0.00 0.00 0.00 64 1019.0
20260904195146 77 240 1.0 2.0 0.00 0.00 0.00 63 1019.0
20260904194128 78 245 1.0 4.0 0.00 0.00 0.00 63 1019.0
20260904193151 78 274 1.0 4.0 0.00 0.00 0.00 63 1018.9
20260904192133 78 100 0.0 3.0 0.00 0.00 0.00 63 1018.9
20260904191121 78 90 1.0 3.0 0.00 0.00 0.00 62 1018.7
20260904190123 78 91 1.0 3.0 0.00 0.00 0.00 63 1018.7
20260904185127 79 91 1.0 2.0 0.00 0.00 0.00 63 1018.7
20260904184123 79 91 0.0 2.0 0.00 0.00 0.00 63 1018.6
20260904183131 78 91 0.0 3.0 0.00 0.00 0.00 62 1018.5
20260904182133 78 103 0.0 2.0 0.00 0.00 0.00 63 1018.5
20260904181156 78 186 0.0 1.0 0.00 0.00 0.00 66 1018.5
20260904180137 78 186 0.0 1.0 0.00 0.00 0.00 65 1018.4
20260904175124 79 186 0.0 2.0 0.00 0.00 0.00 64 1018.3
20260904174127 80 186 0.0 1.0 0.00 0.00 0.00 63 1018.3
20260904173131 81 186 0.0 2.0 0.00 0.00 0.00 61 1018.3
20260904172131 83 186 0.0 1.0 0.00 0.00 0.00 59 1018.3
20260904171155 84 186 0.0 2.0 0.00 0.00 0.00 55 1018.3
20260904170121 85 186 0.0 2.0 0.00 0.00 0.00 54 1018.3
20260904165126 86 186 0.0 1.0 0.00 0.00 0.00 52 1018.2
20260904164128 87 186 0.0 2.0 0.00 0.00 0.00 51 1018.4
20260904163131 88 185 0.0 1.0 0.00 0.00 0.00 44 1018.4
20260904162139 89 186 0.0 2.0 0.00 0.00 0.00 44 1018.5
20260904161142 89 186 1.0 4.0 0.00 0.00 0.00 42 1018.5
20260904160143 88 229 0.0 3.0 0.00 0.00 0.00 44 1018.6
20260904155124 88 88 1.0 2.0 0.00 0.00 0.00 45 1018.6
20260904154131 88 88 1.0 2.0 0.00 0.00 0.00 45 1018.7
20260904153136 88 88 0.0 2.0 0.00 0.00 0.00 46 1018.8
20260904152139 88 88 0.0 4.0 0.00 0.00 0.00 45 1018.8
20260904151122 88 92 1.0 4.0 0.00 0.00 0.00 43 1018.9
20260904150145 88 126 1.0 4.0 0.00 0.00 0.00 45 1018.9
20260904145152 88 100 2.0 3.0 0.00 0.00 0.00 43 1018.9
20260904144155 88 105 0.0 3.0 0.00 0.00 0.00 44 1019.0
20260904143136 88 115 0.0 3.0 0.00 0.00 0.00 44 1019.1
20260904142120 88 91 1.0 5.0 0.00 0.00 0.00 46 1019.2
20260904141126 89 98 1.0 4.0 0.00 0.00 0.00 47 1019.1
20260904140131 89 90 1.0 3.0 0.00 0.00 0.00 48 1019.2
20260904135134 88 91 2.0 4.0 0.00 0.00 0.00 46 1019.3
20260904134138 89 5 1.0 5.0 0.00 0.00 0.00 50 1019.3
20260904133124 89 74 1.0 4.0 0.00 0.00 0.00 45 1019.4
20260904132126 89 59 1.0 4.0 0.00 0.00 0.00 47 1019.4
20260904131130 89 44 1.0 4.0 0.00 0.00 0.00 46 1019.5
20260904130131 88 75 2.0 5.0 0.00 0.00 0.00 43 1019.5
20260904125155 88 86 1.0 4.0 0.00 0.00 0.00 45 1019.6
20260904124121 88 94 1.0 5.0 0.00 0.00 0.00 48 1019.7
20260904123126 88 69 2.0 6.0 0.00 0.00 0.00 45 1019.9
20260904122129 88 119 1.0 5.0 0.00 0.00 0.00 43 1019.9
20260904121131 88 74 3.0 4.0 0.00 0.00 0.00 44 1020.0
20260904120135 88 183 1.0 5.0 0.00 0.00 0.00 45 1020.1
20260904115135 88 76 1.0 4.0 0.00 0.00 0.00 46 1020.2
20260904114140 87 102 1.0 4.0 0.00 0.00 0.00 47 1020.2
20260904113145 87 101 1.0 4.0 0.00 0.00 0.00 44 1020.3
20260904112129 86 82 0.0 4.0 0.00 0.00 0.00 46 1020.3
20260904111132 86 50 2.0 4.0 0.00 0.00 0.00 45 1020.4
20260904110156 86 88 1.0 5.0 0.00 0.00 0.00 43 1020.4
20260904105138 86 49 0.0 3.0 0.00 0.00 0.00 42 1020.5
20260904104124 86 93 1.0 4.0 0.00 0.00 0.00 48 1020.6
20260904103132 86 71 1.0 4.0 0.00 0.00 0.00 45 1020.7
20260904102135 85 53 1.0 3.0 0.00 0.00 0.00 47 1020.8
20260904101137 85 49 1.0 4.0 0.00 0.00 0.00 48 1020.9
20260904100119 85 49 1.0 4.0 0.00 0.00 0.00 50 1021.1
20260904095124 84 63 1.0 3.0 0.00 0.00 0.00 49 1021.1
20260904094126 84 63 2.0 4.0 0.00 0.00 0.00 47 1021.2
20260904093150 84 64 1.0 3.0 0.00 0.00 0.00 52 1021.2
20260904092132 83 5 1.0 3.0 0.00 0.00 0.00 47 1021.3
20260904091139 82 5 1.0 4.0 0.00 0.00 0.00 50 1021.3
20260904090122 81 5 1.0 3.0 0.00 0.00 0.00 49 1021.4
20260904085125 80 5 0.0 4.0 0.00 0.00 0.00 49 1021.3
20260904084129 80 5 1.0 3.0 0.00 0.00 0.00 49 1021.3
20260904083136 79 5 1.0 3.0 0.00 0.00 0.00 52 1021.3
20260904082119 79 5 2.0 4.0 0.00 0.00 0.00 52 1021.3
20260904081123 78 5 1.0 4.0 0.00 0.00 0.00 52 1021.2
20260904080125 77 55 0.0 3.0 0.00 0.00 0.00 52 1021.1
20260904075147 77 55 2.0 4.0 0.00 0.00 0.00 54 1021.2
20260904074154 77 55 1.0 4.0 0.00 0.00 0.00 56 1021.2
20260904073135 76 55 1.0 4.0 0.00 0.00 0.00 58 1021.2
20260904072138 75 5 1.0 3.0 0.00 0.00 0.00 58 1021.2
20260904071121 74 5 1.0 5.0 0.00 0.00 0.00 59 1021.2
20260904070128 73 263 0.0 3.0 0.00 0.00 0.00 63 1021.1
20260904065130 73 263 1.0 2.0 0.00 0.00 0.00 66 1021.0
20260904064132 72 263 1.0 3.0 0.00 0.00 0.00 64 1020.9
20260904063134 72 253 0.0 2.0 0.00 0.00 0.00 62 1020.8
20260904062121 72 253 0.0 3.0 0.00 0.00 0.00 61 1020.7
20260904061125 72 290 2.0 4.0 0.00 0.00 0.00 64 1020.6
20260904060127 71 257 0.0 3.0 0.00 0.00 0.00 60 1020.6
20260904055131 71 30 0.0 5.0 0.00 0.00 0.00 63 1020.6
20260904054140 71 61 0.0 1.0 0.00 0.00 0.00 63 1020.6
20260904053124 71 61 1.0 3.0 0.00 0.00 0.00 61 1020.5
20260904052125 71 132 1.0 5.0 0.00 0.00 0.00 61 1020.4
20260904051148 70 86 0.0 6.0 0.00 0.00 0.00 62 1020.3
20260904050152 69 234 0.0 2.0 0.00 0.00 0.00 65 1020.2
20260904045157 68 236 0.0 5.0 0.00 0.00 0.00 70 1020.2
20260904044139 69 244 1.0 3.0 0.00 0.00 0.00 70 1020.1
20260904043122 71 355 1.0 3.0 0.00 0.00 0.00 64 1020.1
20260904042124 71 321 1.0 3.0 0.00 0.00 0.00 61 1020.1
20260904041132 70 241 1.0 3.0 0.00 0.00 0.00 62 1020.2
20260904040135 71 260 1.0 4.0 0.00 0.00 0.00 65 1020.2
20260904035140 69 283 2.0 9.0 0.00 0.00 0.00 63 1020.3
20260904034122 68 258 0.0 2.0 0.00 0.00 0.00 69 1020.3
20260904033130 69 258 0.0 1.0 0.00 0.00 0.00 71 1020.3
20260904032131 69 258 0.0 1.0 0.00 0.00 0.00 70 1020.4
20260904031154 69 258 0.0 1.0 0.00 0.00 0.00 69 1020.3
20260904030136 70 258 0.0 0.0 0.00 0.00 0.00 66 1020.3
20260904025139 70 258 0.0 2.0 0.00 0.00 0.00 67 1020.3
20260904024126 70 258 0.0 3.0 0.00 0.00 0.00 68 1020.3
20260904023131 70 258 0.0 2.0 0.00 0.00 0.00 69 1020.3
20260904022155 70 287 0.0 1.0 0.00 0.00 0.00 69 1020.3
20260904021138 70 287 0.0 4.0 0.00 0.00 0.00 68 1020.3
20260904020126 70 229 0.0 2.0 0.00 0.00 0.00 68 1020.3
20260904015129 70 229 0.0 1.0 0.00 0.00 0.00 68 1020.2
20260904014155 70 229 1.0 2.0 0.00 0.00 0.00 70 1020.2
20260904013137 71 229 1.0 2.0 0.00 0.00 0.00 68 1020.2
20260904012125 72 221 1.0 4.0 0.00 0.00 0.00 63 1020.2
20260904011130 73 78 1.0 4.0 0.00 0.00 0.00 61 1020.2
20260904010132 73 157 2.0 5.0 0.00 0.00 0.00 61 1020.1
20260904005156 72 215 2.0 4.0 0.00 0.00 0.00 65 1020.1
20260904004137 72 283 2.0 5.0 0.00 0.00 0.00 64 1020.2
20260904003126 72 221 1.0 3.0 0.00 0.00 0.00 64 1020.3
20260904002150 72 167 0.0 3.0 0.00 0.00 0.00 65 1020.4
20260904001131 72 130 0.0 2.0 0.00 0.00 0.00 66 1020.4
20260904000135 72 67 0.0 2.0 0.00 0.00 0.00 66 1020.5
20260903235142 73 67 1.0 3.0 0.00 0.00 0.00 66 1020.4
20260903234124 73 49 1.0 3.0 0.00 0.00 0.00 64 1020.5
20260903233148 73 198 0.0 2.0 0.00 0.00 0.00 65 1020.6
20260903232151 73 5 1.0 5.0 0.00 0.00 0.00 65 1020.5
20260903231133 74 153 2.0 6.0 0.00 0.00 0.00 64 1020.6
20260903230141 74 126 1.0 4.0 0.00 0.00 0.00 64 1020.5
20260903225124 74 105 1.0 4.0 0.00 0.00 0.00 64 1020.5
20260903224148 74 115 1.0 4.0 0.00 0.00 0.00 64 1020.4
20260903223130 74 5 1.0 4.0 0.00 0.00 0.00 65 1020.5
20260903222134 74 71 1.0 5.0 0.00 0.00 0.00 64 1020.4
20260903221120 74 222 1.0 4.0 0.00 0.00 0.00 66 1020.5
20260903220124 74 238 0.0 4.0 0.00 0.00 0.00 68 1020.5
20260903215145 74 245 1.0 4.0 0.00 0.00 0.00 65 1020.5
20260903214126 75 355 1.0 4.0 0.00 0.00 0.00 65 1020.6